Location: Oshawa
(43.9000°N, 78.8670°W)
Time: 10:29:56
(UTC-05:00)

Iridium 98 - Visible Passes

Search period start: 30 January 2015 00:00
Search period end: 09 February 2015 00:00
Orbit: 776 x 779 km, 86.4° (Epoch: 29 January)

Date Brightness Start Highest point End Pass type
(mag) Time Alt. Az. Time Alt. Az. Time Alt. Az.
30 Jan 6.5 04:28:05 10° N 04:33:31 45° E 04:38:05 10° SSE visible
30 Jan 6.6 06:14:11 22° W 06:14:11 22° W 06:17:25 10° SW visible
30 Jan 8.6 19:11:12 10° W 19:12:57 11° WNW 19:14:24 10° NW visible
31 Jan 7.9 04:02:26 16° ESE 04:02:26 16° ESE 04:03:41 10° SE visible
31 Jan 6.9 05:43:03 22° SW 05:43:03 22° SW 05:45:00 10° SSW visible
31 Jan 8.2 18:35:03 10° WSW 18:38:56 20° WNW 18:42:41 10° NNW visible
01 Feb8.903:30:51SE03:30:51SE03:19:55NNEvisible
01 Feb 7.7 05:11:26 13° S 05:11:26 13° S 05:11:58 10° S visible
01 Feb 7.3 18:00:19 10° SW 18:05:05 35° W 18:09:50 10° NNW visible
02 Feb8.404:39:35S04:39:35S04:26:33Nvisible
03 Feb 8.4 18:36:24 10° WSW 18:39:19 14° WNW 18:41:59 10° NW visible
04 Feb 7.9 18:01:02 10° SW 18:05:21 25° WNW 18:09:35 10° NNW visible
07 Feb 8.2 18:02:05 10° WSW 18:05:42 18° WNW 18:09:07 10° NNW visible
